Weather in Pokrov

Ukraine / Dnipropetrovsk Region     47°39′12″N   34°05′03″E
temp.,
°C
wind,
m/s
gust,
m/s
humid.,
%
clouds,
%
prec.,
mm/h
press.,
hPa
HPBL,
m
18 may, tue
tue1800:00+15sw378867 1.1 1006153
03:00+13ssw3692100 1.4 1005157
06:00+13s379519 0.0 1005222
09:00+16s578174 0.1 1006558
12:00+21s896029 0.4 10041522
15:00+18ssw91271100 2.1 1004923
18:00+17s7107942 1.2 10031024
21:00+15ssw611874 1.8 1003389
19 may, wed
wed1900:00+13s5109238 0.0 1003299
03:00+12ssw410935 0.2 1003244
06:00+12s410915 0.6 1003279
09:00+16ssw67675 0.6 1004950
12:00+18ssw796199 0.9 10041605
15:00+16ssw898099 2.1 1004882
18:00+14sw6118449 0.4 1004626
21:00+13wsw8138944 0.6 1006524
20 may, thu
thu2000:00+12wsw8138780 0.0 1007547
03:00+12w6118762 0.0 1008586
06:00+10wsw511910 0.0 1010347
09:00+16w57635 0.0 1011725
12:00+20sw46495 0.0 10111627
15:00+19ssw4666100 0.3 1011344
18:00+21se025494 0.3 1010535
21:00+14nne4789100 1.6 1011153
21 may, fri
fri2100:00+13ne3693100 0.0 1010124
03:00+12ene4789100 0.0 1010142
06:00+12ene4888100 0.2 1009216
09:00+18se5678100 0.2 1009631
12:00+20sse4563100 0.0 1009941
15:00+23sse3352100 0.0 10091256
18:00+22sse2155100 0.0 1008738
21:00+18w117222 0.0 100911
22 may, sat
sat2200:00+15n588699 0.0 1009149
03:00+14nnw61096100 0.0 1009261
06:00+14n6119351 0.1 1009322
09:00+18nne687930 0.1 1010568
12:00+21n667014 0.0 1011803
15:00+25nne44545 0.0 10111034
18:00+24nnw666219 0.0 1011778
21:00+18n6118222 0.0 1012328